FW4307 Weather Reports


time (UTC)temp
C
wind
direction
speed
KPH
gust
KPH
rain 1hr
cm
rain 24hr
cm
rain mn
cm
humidity
%
barometer
mb
20260503181019 14 241 4.8 11.3 0.00 0.00 0.00 85 1014.5
20260503180519 14 286 3.2 9.7 0.00 0.00 0.00 85 1014.4
20260503180024 14 242 1.6 11.3 0.00 0.00 0.00 85 1014.5
20260503175517 14 213 1.6 11.3 0.00 0.00 0.00 86 1014.4
20260503175019 14 300 1.6 8.0 0.00 0.00 0.00 86 1014.5
20260503174515 13 282 3.2 8.0 0.00 0.00 0.00 86 1014.5
20260503174017 13 277 1.6 6.4 0.00 0.00 0.00 86 1014.5
20260503173514 13 286 1.6 4.8 0.00 0.00 0.00 86 1014.5
20260503173014 13 246 1.6 4.8 0.00 0.00 0.00 86 1014.4
20260503172513 13 13 0.0 4.8 0.00 0.00 0.00 87 1014.4
20260503172015 13 251 0.0 4.8 0.00 0.00 0.00 87 1014.3
20260503171511 13 265 1.6 4.8 0.00 0.00 0.00 88 1014.3
20260503171010 13 296 1.6 4.8 0.00 0.00 0.00 88 1014.3
20260503170509 13 355 1.6 4.8 0.00 0.00 0.00 88 1014.2
20260503150554 11 231 1.6 4.8 0.00 0.00 0.00 93 1013.6
20260503131047 11 240 1.6 4.8 0.00 0.00 0.00 94 1012.1
20260503130547 11 238 0.0 3.2 0.00 0.00 0.00 94 1012.1
20260503110539 11 213 0.0 4.8 0.00 0.00 0.00 93 1012.1
20260503081535 11 214 4.8 9.7 0.00 0.00 0.00 93 1012.8
20260503081027 11 221 4.8 8.0 0.00 0.00 0.00 92 1012.8
20260503080527 11 245 3.2 8.0 0.00 0.00 0.00 92 1012.8
20260503072526 11 209 3.2 8.0 0.00 0.00 0.00 92 1012.9
20260503072024 11 238 1.6 4.8 0.00 0.00 0.00 92 1013.0
20260503071522 11 211 1.6 6.4 0.00 0.00 0.00 92 1012.9
20260503071022 11 244 1.6 8.0 0.00 0.00 0.00 92 1012.9
20260503070522 11 169 3.2 8.0 0.00 0.00 0.00 92 1012.9
20260503055020 11 217 3.2 6.4 0.00 0.00 0.00 91 1013.3
20260503054517 11 238 1.6 6.4 0.00 0.00 0.00 91 1013.5
20260503054017 11 215 1.6 6.4 0.00 0.00 0.00 91 1013.4
20260503053517 11 259 0.0 6.4 0.00 0.00 0.00 91 1013.4
20260503053020 11 264 3.2 6.4 0.00 0.00 0.00 91 1013.4
20260503052517 11 204 3.2 6.4 0.00 0.00 0.00 91 1013.4
20260503052018 11 238 1.6 11.3 0.00 0.00 0.00 91 1013.4
20260503051516 11 227 4.8 11.3 0.00 0.00 0.00 91 1013.4
20260503051016 11 213 3.2 9.7 0.00 0.00 0.00 91 1013.5
20260503050516 11 276 3.2 9.7 0.00 0.00 0.00 91 1013.4
20260503050016 11 227 3.2 6.4 0.00 0.00 0.00 91 1013.5
20260503045516 11 239 3.2 8.0 0.00 0.00 0.00 91 1013.4
20260503045017 11 242 4.8 9.7 0.00 0.00 0.00 91 1013.5
20260503044514 11 261 4.8 9.7 0.00 0.00 0.00 91 1013.5
20260503044015 11 259 3.2 8.0 0.00 0.00 0.00 91 1013.3
20260503043514 11 244 4.8 8.0 0.00 0.00 0.00 91 1013.4
20260503043014 11 254 4.8 9.7 0.00 0.00 0.00 91 1013.4
20260503042514 11 223 4.8 9.7 0.00 0.00 0.00 90 1013.3
20260503042014 11 275 4.8 9.7 0.00 0.00 0.00 90 1013.3
20260503041516 11 217 1.6 9.7 0.00 0.00 0.00 90 1013.2
20260503041015 11 224 4.8 9.7 0.00 0.00 0.00 90 1013.2
20260503040516 11 231 1.6 6.4 0.00 0.00 0.00 90 1013.2
20260503040015 11 199 3.2 11.3 0.00 0.00 0.00 90 1013.1
20260503035516 11 221 4.8 11.3 0.00 0.00 0.00 90 1013.0
20260503035012 11 200 4.8 8.0 0.00 0.00 0.00 90 1012.9
20260503034512 11 247 3.2 6.4 0.00 0.00 0.00 90 1012.9
20260503034011 11 259 1.6 9.7 0.00 0.00 0.00 90 1012.8
20260503033511 11 240 4.8 9.7 0.00 0.00 0.00 90 1012.8
20260503033012 11 234 1.6 9.7 0.00 0.00 0.00 89 1012.7
20260503032512 11 242 3.2 9.7 0.00 0.00 0.00 89 1012.7
20260503032012 11 252 4.8 12.9 0.00 0.00 0.00 89 1012.6
20260503031512 11 250 3.2 9.7 0.00 0.00 0.00 89 1012.6
20260503031011 11 221 3.2 12.9 0.00 0.00 0.00 89 1012.5
20260503030510 11 223 4.8 8.0 0.00 0.00 0.00 89 1012.6
20260503030010 11 251 3.2 11.3 0.00 0.00 0.00 89 1012.6
20260503025510 11 246 6.4 11.3 0.00 0.00 0.00 89 1012.6
20260503025009 11 234 6.4 12.9 0.00 0.00 0.00 89 1012.7
20260503024509 11 219 6.4 12.9 0.00 0.00 0.00 89 1012.7
20260503024009 11 280 3.2 9.7 0.00 0.00 0.00 89 1012.7
20260503023510 11 227 4.8 9.7 0.00 0.00 0.00 89 1012.7
20260503023009 12 286 4.8 9.7 0.00 0.00 0.00 89 1012.7
20260503022508 12 291 1.6 8.0 0.00 0.00 0.00 89 1012.7
20260503022007 12 246 3.2 12.9 0.00 0.00 0.00 89 1012.7
20260503021507 12 284 4.8 12.9 0.00 0.00 0.00 88 1012.6
20260503021006 12 285 1.6 14.5 0.00 0.00 0.00 88 1012.7
20260503020508 12 264 6.4 14.5 0.00 0.00 0.00 88 1012.8
20260503020006 12 273 4.8 14.5 0.00 0.00 0.00 88 1012.8
20260503015507 12 290 6.4 14.5 0.00 0.00 0.00 88 1012.8
20260503015004 12 263 3.2 14.5 0.00 0.00 0.00 88 1012.8
20260503014504 12 242 6.4 14.5 0.00 0.00 0.00 88 1012.8
20260503014004 12 219 8.0 14.5 0.00 0.00 0.00 88 1012.8
20260503013504 12 234 4.8 12.9 0.00 0.00 0.00 88 1012.9
20260503013010 12 232 3.2 11.3 0.00 0.00 0.00 87 1012.9
20260503012502 12 281 4.8 8.0 0.00 0.00 0.00 87 1013.0
20260503012004 12 247 3.2 12.9 0.00 0.00 0.00 87 1013.0
20260503011503 12 219 6.4 12.9 0.00 0.00 0.00 87 1013.0
20260503011004 12 241 3.2 9.7 0.00 0.00 0.00 87 1013.0
20260503010503 12 266 3.2 12.9 0.00 0.00 0.00 87 1012.9
20260503010004 12 209 4.8 12.9 0.00 0.00 0.00 87 1013.0
20260503005502 12 229 6.4 11.3 0.00 0.00 0.00 86 1013.0
20260503005002 12 255 4.8 16.1 0.00 0.00 0.00 86 1013.0
20260503004503 12 186 6.4 16.1 0.00 0.00 0.00 86 1013.0
20260503004003 13 243 4.8 16.1 0.00 0.00 0.00 86 1013.0
20260503003500 13 242 6.4 16.1 0.00 0.00 0.00 86 1013.1
20260503003101 13 259 6.4 16.1 0.00 0.00 0.00 86 1013.0
20260503002600 13 226 6.4 17.7 0.00 0.00 0.00 86 1013.0
20260503002100 13 252 8.0 16.1 0.00 0.00 0.00 86 1013.0
20260503001600 13 223 4.8 16.1 0.00 0.00 0.00 85 1013.0
20260503001059 13 231 8.0 17.7 0.00 0.00 0.00 85 1013.0
20260503000558 13 277 9.7 17.7 0.00 0.00 0.00 84 1013.1
20260503000104 13 253 6.4 16.1 0.00 0.00 0.00 84 1013.0
20260502235558 13 208 8.0 17.7 0.00 0.00 0.00 84 1013.1
20260502235058 14 242 4.8 12.9 0.00 0.00 0.00 85 1013.1
20260502234558 14 270 8.0 12.9 0.00 0.00 0.00 84 1013.1
20260502234058 14 245 6.4 12.9 0.00 0.00 0.00 83 1013.2
20260502233558 14 217 8.0 14.5 0.00 0.00 0.00 83 1013.1
20260502233059 14 254 9.7 16.1 0.00 0.00 0.00 83 1013.1
20260502232557 15 281 9.7 16.1 0.00 0.00 0.00 83 1013.3
20260502232059 15 250 6.4 16.1 0.00 0.00 0.00 83 1013.2
20260502231604 15 298 6.4 14.5 0.00 0.00 0.00 83 1013.2
20260502231101 15 259 6.4 12.9 0.00 0.00 0.00 83 1013.3
20260502230557 15 248 6.4 14.5 0.00 0.00 0.00 83 1013.3
20260502230056 15 206 8.0 14.5 0.00 0.00 0.00 84 1013.4
20260502225556 15 288 8.0 16.1 0.00 0.00 0.00 84 1013.4
20260502225056 15 225 8.0 16.1 0.00 0.00 0.00 85 1013.5
20260502224556 15 186 8.0 14.5 0.00 0.00 0.00 85 1013.5
20260502224055 15 292 8.0 12.9 0.00 0.00 0.00 85 1013.6
20260502223555 15 216 8.0 14.5 0.00 0.00 0.00 85 1013.7
20260502223056 14 217 9.7 19.3 0.00 0.00 0.00 85 1013.7
20260502222554 15 227 9.7 19.3 0.00 0.00 0.00 85 1013.8
20260502222054 14 205 9.7 19.3 0.00 0.00 0.00 86 1013.8
20260502221558 14 178 9.7 19.3 0.00 0.00 0.00 86 1014.0
20260502221055 14 250 9.7 17.7 0.00 0.00 0.00 86 1014.0
20260502220554 14 205 9.7 16.1 0.00 0.00 0.00 86 1014.1
20260502220054 14 201 11.3 16.1 0.00 0.00 0.00 86 1013.9
20260502215556 14 205 9.7 19.3 0.00 0.00 0.00 87 1014.0
20260502215054 14 231 9.7 19.3 0.00 0.00 0.00 86 1014.1
20260502214558 14 297 6.4 17.7 0.00 0.00 0.00 87 1014.1
20260502214053 15 189 8.0 16.1 0.00 0.00 0.00 87 1014.1
20260502213557 15 239 6.4 14.5 0.00 0.00 0.00 87 1014.1
20260502213053 15 191 6.4 14.5 0.00 0.00 0.00 87 1014.1
20260502212553 15 205 8.0 17.7 0.00 0.00 0.00 87 1014.2
20260502212052 15 260 6.4 14.5 0.00 0.00 0.00 87 1014.2
20260502211553 14 237 4.8 14.5 0.00 0.00 0.00 87 1014.4
20260502211052 14 241 8.0 14.5 0.00 0.00 0.00 88 1014.4
20260502210553 14 250 6.4 11.3 0.00 0.00 0.00 87 1014.3
20260502210105 14 258 4.8 12.9 0.00 0.00 0.00 88 1014.5
20260502205551 14 216 6.4 12.9 0.00 0.00 0.00 88 1014.4
20260502205056 14 209 6.4 14.5 0.00 0.00 0.00 89 1014.5
20260502204555 14 236 6.4 14.5 0.00 0.00 0.00 89 1014.5
20260502204050 13 242 8.0 12.9 0.00 0.00 0.00 88 1014.5
20260502203549 14 215 6.4 16.1 0.00 0.00 0.00 88 1014.6
20260502203052 14 190 8.0 16.1 0.00 0.00 0.00 89 1014.6
20260502202552 14 244 8.0 16.1 0.00 0.00 0.00 88 1014.7
20260502202052 14 194 6.4 14.5 0.00 0.00 0.00 89 1014.6
20260502201550 14 234 8.0 17.7 0.00 0.00 0.00 88 1014.6
20260502201051 14 235 11.3 17.7 0.00 0.00 0.00 87 1014.7
20260502200549 15 250 8.0 16.1 0.00 0.00 0.00 87 1014.7
20260502200052 15 231 9.7 16.1 0.00 0.00 0.00 87 1014.6
20260502195548 15 205 4.8 11.3 0.00 0.00 0.00 88 1014.6
20260502195050 15 219 6.4 12.9 0.00 0.00 0.00 88 1014.7
20260502194647 15 184 6.4 12.9 0.00 0.00 0.00 87 1014.7
20260502194047 15 245 8.0 12.9 0.00 0.00 0.00 87 1014.7
20260502193547 15 271 1.6 14.5 0.00 0.00 0.00 87 1014.7
20260502193047 15 238 8.0 14.5 0.00 0.00 0.00 87 1014.7
20260502192548 15 227 8.0 11.3 0.00 0.00 0.00 87 1014.7
20260502192045 15 223 3.2 12.9 0.00 0.00 0.00 86 1014.8
20260502191545 15 195 6.4 12.9 0.00 0.00 0.00 86 1014.8
20260502191045 15 202 6.4 12.9 0.00 0.00 0.00 86 1014.8
20260502190545 15 186 6.4 11.3 0.00 0.00 0.00 87 1014.8
20260502190049 15 196 4.8 11.3 0.00 0.00 0.00 86 1014.7
20260502185544 15 200 8.0 12.9 0.00 0.00 0.00 86 1014.7
20260502185043 15 207 6.4 12.9 0.00 0.00 0.00 86 1014.7
20260502184550 15 119 4.8 11.3 0.00 0.00 0.00 85 1014.8
20260502184043 15 199 0.0 9.7 0.00 0.00 0.00 85 1014.8
20260502183543 15 191 3.2 6.4 0.00 0.00 0.00 86 1014.7
20260502183042 15 98 1.6 6.4 0.00 0.00 0.00 86 1014.7
20260502182539 15 150 1.6 8.0 0.00 0.00 0.00 86 1014.8
20260502182041 15 107 3.2 8.0 0.00 0.00 0.00 86 1014.7
20260502181544 14 290 0.0 8.0 0.00 0.00 0.00 86 1014.7